Погода в Рымнику-Сэрате

Румыния     45°22′58″N   27°02′25″E
темп.,
°C
ветер,
м/с
пор.,
м/с
влажн.,
%
обл.,
%
осадки,
мм/ч
давл.,
гПа
погр.,
м
19 января, вт
вт1923:00−10ссв129234 0.0 1024109
02:00−10ююз119246 0.0 102530
05:00−10ю11895 0.0 102521
08:00−10ю128736 0.0 102573
11:00−6ююз247296 0.0 1025374
14:00−2ююз256098 0.0 1023587
17:00−5з227661 0.0 102344
20:00−6з117737 0.0 102322
20 января, ср
ср2023:00−5зюз227683 0.0 102328
02:00−4з127691 0.0 102325
05:00−2зюз1275100 0.0 102223
08:00−1юз2279100 0.0 102228
11:00+1юз2373100 0.0 1021146
14:00+3юз4872100 0.0 1020287
17:000юз228158 0.0 102026
20:000з228367 0.0 102122
21 января, чт
чт2123:00+2з228265 0.0 102228
02:00+1зсз228178 0.0 102224
05:00+1з128015 0.0 102122
08:00+1зсз127938 0.0 102222
11:00+5юз117770 0.0 102150
14:00+6ю127649 0.0 102079
17:00+2юз228231 0.0 102025
20:00+2зюз238224 0.0 102025
22 января, пт
пт2223:00+2юз348191 0.0 101979
02:00+1юз348196 0.0 101965
05:00+1юз348231 0.0 101854
08:00+2юз488242 0.0 1017180
11:00+6юз51476100 0.0 1016424
14:00+9юз7147088 0.0 1014540
17:00+4юз448650 0.0 101377
20:00+3юз338637 0.0 101240
23 января, сб
сб2323:00+2ююз338862 0.0 101137
02:00+3юз358259 0.0 101093
05:00+4юз3678100 0.0 1009104
08:00+4юз51381100 0.0 1009298
11:00+8юз8167998 0.0 1009735
14:00+10юз6127499 0.0 1008588
17:00+5ююз348956 0.0 100780
20:00+5зюз228773 0.0 100622